Theta_e
306 306 306 305 308 311 312 312 312 312 313 313 312 312 312 310 316 311 311 312 313 313 311 308 315 315 314 313 313 313 310 309 312 314 313 314 313 316 317 318 317 318 319 320 342
306 306 306 306 305 309 311 312 312 312 314 314 313 313 312 313 315 315 314 313 314 313 314 314 314 314 315 313 313 309 307 310 310 312 312 313 313 315 316 316 317 317 320 320 344
306 306 306 306 305 306 311 312 311 313 314 314 313 312 311 316 316 317 315 313 314 314 315 315 314 314 314 314 314 310 309 310 311 313 313 313 313 314 315 315 315 317 317 320 346
307 307 307 307 306 307 311 311 311 314 315 314 312 312 315 315 312 314 314 315 316 315 315 315 314 312 312 312 313 312 312 313 311 314 314 312 314 313 313 313 315 316 317 318 332
308 308 308 308 309 310 311 310 313 316 315 315 313 313 315 315 315 315 316 316 316 315 315 315 314 312 310 309 310 311 312 312 311 311 312 314 314 314 314 315 315 315 316 318 319
308 307 310 314 313 312 312 315 315 316 316 316 315 315 316 314 315 315 316 316 315 315 315 315 315 313 311 309 308 310 310 310 311 310 311 313 314 314 315 315 315 316 317 318 319
307 307 311 316 317 318 318 317 315 316 316 317 317 316 316 317 316 316 316 317 316 316 316 315 315 313 312 308 310 310 308 309 309 310 312 314 313 314 315 315 315 316 316 317 318
306 308 307 314 316 318 317 316 314 316 315 317 317 317 317 318 317 316 316 317 317 316 317 316 315 313 311 311 310 308 307 307 307 310 310 312 312 313 314 313 314 315 315 316 318
306 308 307 310 315 316 314 316 316 316 315 316 316 316 317 316 317 317 316 317 317 317 317 316 314 313 311 309 309 308 308 308 310 310 309 312 310 310 311 312 313 314 314 315 316
307 307 308 313 316 314 314 315 315 316 316 316 316 316 316 317 317 317 317 317 317 317 317 316 314 310 307 309 315 315 314 314 313 313 309 309 310 311 311 311 311 312 313 314 316
308 308 309 314 316 312 314 315 316 316 317 317 316 316 317 315 316 317 317 318 318 317 316 316 315 316 316 312 313 314 315 315 314 316 316 316 312 311 311 311 310 311 313 313 315
309 308 309 311 312 311 313 315 316 317 317 318 315 316 314 314 316 317 318 318 318 317 316 316 318 317 317 316 317 317 317 318 317 316 313 314 314 314 313 312 312 312 312 313 314
310 309 309 310 312 313 313 314 317 318 315 317 315 312 314 314 315 317 318 318 317 318 317 317 318 317 318 318 319 318 318 319 319 317 315 315 316 315 314 313 313 313 313 314 315
311 311 311 311 312 312 313 314 315 318 308 311 312 312 313 314 315 314 318 319 318 318 318 317 316 318 316 317 318 320 318 318 319 319 319 316 318 315 314 312 311 312 313 314 316
313 312 311 311 311 312 313 315 316 319 309 312 312 313 313 313 314 313 317 318 317 317 318 316 315 315 316 316 319 320 319 320 319 321 320 320 321 317 313 313 312 312 313 314 316
314 315 313 313 313 313 314 317 319 307 311 313 313 312 311 313 313 313 315 316 317 314 314 315 314 314 314 317 318 318 319 319 320 318 321 318 317 317 315 313 313 312 314 316 316
315 314 313 314 314 314 314 318 310 309 311 312 313 311 311 312 313 312 312 314 314 313 315 314 314 313 317 316 317 317 320 323 321 323 320 316 318 315 314 313 312 313 314 316 316
315 316 313 314 314 315 314 308 310 312 312 313 313 312 312 311 312 311 310 315 314 314 312 316 316 315 315 317 318 320 320 322 323 324 322 316 317 315 321 316 320 315 315 317 317
313 314 313 314 314 314 314 309 311 312 313 314 312 313 312 312 312 310 310 315 316 313 315 315 317 316 315 316 318 322 322 318 318 321 321 316 316 316 322 323 323 326 320 317 318
312 317 314 313 314 314 310 312 311 313 313 312 311 312 312 312 312 310 311 314 318 314 311 313 319 317 317 318 320 320 319 324 319 324 327 325 324 325 324 324 323 325 324 326 321
312 315 314 313 313 313 309 311 313 314 313 312 311 311 311 312 311 311 312 314 317 315 312 313 317 318 316 319 319 321 322 323 320 321 326 328 329 323 324 324 324 325 323 325 325
312 309 313 312 311 307 309 310 313 313 311 312 312 311 312 312 311 312 313 314 315 314 314 314 315 320 317 316 318 320 322 322 326 326 321 326 327 320 322 323 324 323 323 327 327
312 311 312 311 307 307 309 312 313 311 309 310 311 312 311 311 312 312 314 314 313 313 315 315 313 319 316 316 317 320 320 323 324 322 324 327 326 321 322 324 323 323 329 329 326
312 307 311 310 310 309 308 310 311 310 309 309 311 311 310 311 310 311 312 313 312 315 316 316 313 319 320 319 319 323 324 324 325 325 321 320 320 325 324 325 322 325 334 324 319
312 308 307 305 307 306 307 309 309 309 309 309 310 310 309 310 310 312 312 312 313 316 315 316 318 317 317 318 321 324 324 325 326 325 320 323 324 325 324 324 320 325 330 333 334
309 310 310 309 308 307 306 308 309 309 308 308 308 307 309 310 311 312 312 312 314 314 315 314 319 318 318 320 320 322 322 322 325 323 325 325 329 325 322 319 316 316 326 329 328
312 308 309 308 306 306 307 308 309 308 308 308 308 307 310 311 311 311 311 312 313 315 315 318 320 319 319 318 321 324 322 321 324 321 323 327 326 324 323 319 316 313 317 323 325
Wind_Speed
23 21 19 17 15 13 12 13 16 18 19 21 19 22 17 16 14 15 15 14 15 15 12 8 5 8 2 2 5 2 2 3 4 3 5 14 7 20 18 16 17 16 24 33 31
24 21 18 16 14 12 11 12 14 15 17 19 19 18 15 10 15 15 16 17 17 15 14 13 13 11 1 2 3 3 3 6 6 5 7 17 15 20 18 27 19 19 27 36 14
25 21 18 15 12 10 8 10 12 14 17 19 18 15 11 6 8 11 13 15 14 14 15 16 13 8 3 3 4 1 5 5 12 24 26 20 19 27 19 19 16 17 31 24 12
25 21 19 16 12 9 9 10 11 14 16 18 16 13 14 13 4 9 13 13 13 12 11 11 13 6 3 3 5 5 10 11 8 14 17 10 18 12 22 23 30 26 24 28 16
24 23 21 18 15 12 11 11 11 12 14 15 12 11 12 11 7 10 11 9 9 10 8 9 8 8 2 5 8 6 3 12 17 24 16 22 16 18 26 25 23 23 25 25 18
23 23 20 19 17 14 12 12 12 11 13 12 10 9 8 3 5 3 4 3 7 11 8 5 5 9 6 6 1 6 16 17 17 20 17 11 13 10 18 27 25 22 24 25 22
23 21 18 17 17 15 13 12 14 8 12 8 8 4 2 2 3 3 5 4 4 8 10 8 9 4 6 6 8 13 9 11 10 10 6 14 12 10 15 18 23 25 23 22 18
25 17 17 11 13 14 13 13 13 6 10 8 7 5 2 4 7 7 5 7 7 9 10 11 11 10 5 6 6 5 3 4 6 7 8 4 10 10 12 15 22 22 23 22 12
27 17 18 11 11 12 14 14 13 2 10 8 6 8 3 11 11 6 11 9 10 9 12 10 12 10 4 1 5 2 6 7 7 1 6 5 9 7 16 15 18 25 25 21 17
27 17 17 10 11 12 16 13 11 3 10 6 8 6 6 18 17 15 10 10 14 12 13 9 5 2 2 3 7 8 9 11 13 3 7 17 20 17 12 15 18 25 24 22 22
26 16 14 9 9 13 16 10 14 3 19 6 14 9 20 22 22 18 10 7 12 8 4 4 1 10 17 14 15 14 14 20 19 11 14 22 20 19 12 14 12 23 24 23 22
25 14 16 8 9 12 14 11 10 7 8 7 12 11 20 24 7 9 10 4 3 6 2 4 10 19 10 12 14 14 17 21 20 13 10 13 21 19 16 19 19 20 26 27 22
22 15 16 2 12 14 14 14 10 11 1 7 9 9 26 18 8 12 6 4 5 4 5 7 16 16 11 5 5 9 13 18 19 18 12 16 23 17 18 20 25 24 33 31 25
16 19 15 14 7 17 16 13 11 9 4 6 8 10 24 20 10 24 10 5 2 5 5 9 6 6 13 13 10 15 11 19 19 11 10 7 11 18 15 17 10 18 25 31 27
15 19 19 17 15 16 18 17 7 1 4 8 6 15 22 13 13 23 10 4 5 6 1 8 14 8 10 7 4 12 10 14 17 16 12 18 8 13 11 15 19 15 26 34 30
8 20 26 23 20 20 22 7 7 6 3 6 8 10 9 17 20 24 7 4 3 4 4 16 15 4 5 6 6 11 8 11 12 2 5 14 10 18 13 19 14 8 19 29 31
15 9 24 24 23 17 16 1 5 6 4 7 9 8 6 10 10 13 5 6 3 7 14 8 6 5 1 9 4 4 7 5 3 2 5 1 8 11 15 8 12 10 11 15 24
19 12 21 22 18 12 11 6 8 4 5 5 6 7 3 8 5 15 8 4 2 0 4 5 9 4 3 3 7 5 1 3 5 4 8 4 5 5 12 5 11 5 10 11 14
22 9 23 19 16 15 3 6 4 3 4 5 7 4 4 9 2 6 5 2 2 1 3 5 6 5 12 13 1 1 4 2 4 4 4 4 6 5 22 21 18 11 10 8 14
27 7 19 17 16 10 6 1 3 3 4 1 4 1 5 7 7 8 4 3 4 5 5 4 9 5 11 2 3 5 0 3 2 4 4 4 3 9 22 20 17 14 9 13 9
23 6 15 19 7 8 3 4 4 6 3 1 4 4 4 6 3 4 4 4 2 4 6 2 4 10 9 3 8 5 4 4 2 3 2 4 2 8 15 16 17 15 17 13 6
17 5 16 24 8 4 2 6 8 3 5 4 2 3 4 4 4 3 4 4 9 6 6 2 2 6 12 16 5 6 10 9 3 4 3 2 3 7 16 15 12 15 22 15 12
20 6 9 19 4 4 7 4 3 6 5 5 4 3 3 3 4 4 3 10 11 6 3 1 2 6 9 5 4 8 15 16 5 3 3 4 4 13 16 13 16 16 22 7 12
9 4 6 7 5 2 5 5 7 12 9 13 5 4 5 4 5 6 4 6 14 6 5 3 2 4 5 15 14 14 16 9 5 4 7 2 11 13 18 16 20 28 27 11 12
5 2 3 4 4 6 2 3 5 7 5 9 4 5 8 5 4 4 6 6 7 3 1 2 4 4 13 17 12 6 14 17 14 17 4 17 9 13 16 15 19 29 25 21 24
7 5 6 8 11 5 5 4 4 9 4 6 5 15 10 5 4 14 9 3 7 1 1 2 4 4 10 5 12 13 16 20 14 18 10 14 8 15 15 29 27 28 28 19 20
10 5 5 4 4 2 1 5 7 12 9 11 11 9 7 7 19 30 27 25 15 4 2 2 3 5 5 9 9 5 11 15 11 17 14 10 15 17 12 14 20 29 24 23 18
Wind_Direction
8 4 2 1 357 355 0 5 4 3 359 355 357 355 356 9 41 74 56 44 31 26 28 30 24 11 304 257 220 163 40 257 270 307 272 315 338 307 307 284 322 311 292 309 296
1 357 353 350 349 347 357 3 2 1 355 358 356 351 359 42 72 48 33 31 39 44 42 28 21 14 321 256 213 141 157 229 217 267 294 295 289 294 297 295 299 307 296 331 237
2 0 358 353 349 351 2 8 6 1 358 1 3 11 27 61 68 20 21 23 31 30 21 15 8 8 341 343 274 255 213 237 270 271 279 282 291 286 281 280 289 300 306 327 228
9 12 14 12 9 13 20 14 11 3 3 14 18 41 55 59 72 32 45 46 39 32 20 11 10 11 334 332 328 312 263 271 293 311 308 293 295 284 271 275 286 287 288 295 260
17 19 19 25 28 31 30 21 14 8 11 24 37 58 74 64 68 57 60 37 17 2 1 5 5 348 350 285 318 212 251 296 295 297 285 293 284 272 278 293 305 289 282 277 274
17 17 26 32 35 37 33 26 13 16 16 25 41 61 79 63 21 21 17 32 351 335 316 305 320 333 299 301 245 290 293 289 292 288 278 262 271 279 287 296 296 295 275 271 279
14 18 24 34 38 41 33 14 9 13 15 12 24 53 53 28 5 299 291 323 322 316 326 275 296 302 306 294 299 285 294 309 294 265 267 267 268 250 290 299 293 286 283 277 278
9 13 16 25 34 31 19 5 358 354 5 1 9 348 258 293 296 280 271 319 286 276 317 317 288 282 230 271 315 313 326 331 291 332 280 235 281 289 291 324 310 308 297 284 271
8 8 5 16 22 16 7 353 348 11 3 358 353 344 296 317 298 258 251 283 300 279 291 299 278 259 255 305 331 313 254 270 305 296 275 258 272 259 296 302 295 298 300 297 272
6 10 8 28 30 23 14 356 11 31 351 350 336 344 326 319 314 300 264 264 270 275 285 263 252 268 25 110 258 259 276 269 270 260 283 277 273 281 269 281 274 283 290 293 285
6 16 14 33 36 29 19 15 11 344 331 285 295 277 308 342 310 294 242 239 257 265 239 264 273 255 256 233 246 271 272 265 262 273 280 274 277 273 285 258 254 273 275 282 280
6 20 18 49 42 25 29 33 15 331 311 357 18 331 355 340 299 297 231 231 237 249 289 331 263 269 271 259 262 258 266 269 280 254 237 279 276 271 275 266 255 255 266 271 270
9 18 21 57 27 21 23 20 2 348 272 320 16 18 355 359 349 341 286 257 236 280 281 237 264 304 313 286 291 255 248 267 269 293 247 273 273 274 267 263 258 247 251 262 261
17 19 27 30 10 6 13 355 349 341 55 323 1 354 348 353 14 5 324 274 303 276 292 271 280 299 302 286 271 273 245 254 266 281 283 186 278 277 270 262 242 234 234 245 253
27 31 30 21 7 357 346 332 317 146 32 310 342 347 341 28 316 3 342 281 257 273 59 269 303 312 311 257 233 247 275 269 266 263 275 274 262 263 252 247 242 237 228 238 246
35 35 20 10 3 353 348 359 114 47 340 322 331 334 2 359 345 351 358 342 292 305 237 263 279 231 222 296 296 257 312 290 276 308 252 255 259 281 258 241 247 227 224 233 242
360 344 10 359 344 349 349 64 42 81 332 301 315 342 337 349 323 349 319 2 2 350 345 319 293 289 160 326 311 15 319 306 301 252 255 323 281 260 287 279 228 208 205 244 249
3 38 13 4 358 354 351 55 62 243 260 287 305 319 10 342 308 341 351 337 267 236 296 352 325 6 2 308 276 311 245 285 301 310 291 261 243 264 4 24 19 334 264 251 269
2 28 15 6 2 352 62 50 194 260 288 307 320 330 301 340 268 347 312 278 273 142 4 331 270 308 299 290 244 297 253 215 267 233 283 269 287 269 353 4 3 9 14 266 272
351 311 359 359 357 22 66 188 227 244 283 39 359 326 304 334 347 356 307 270 330 227 150 283 294 264 315 297 218 212 304 272 221 304 301 284 339 350 349 343 342 348 330 315 310
356 341 352 355 353 41 90 249 284 258 300 262 267 274 288 303 286 299 271 299 233 289 191 238 208 298 319 308 329 332 324 290 237 255 279 311 357 353 341 334 324 329 307 303 243
354 345 344 357 44 23 13 309 310 318 326 288 241 228 231 282 297 288 263 253 329 308 294 248 283 296 290 290 263 359 294 292 288 284 246 261 294 352 343 330 324 325 310 304 207
339 308 346 15 57 337 311 298 291 328 321 357 284 225 274 272 328 250 282 292 319 325 284 344 289 309 327 343 310 326 318 313 235 342 268 307 307 324 345 341 344 338 334 317 175
342 349 341 30 49 42 338 298 328 334 311 344 267 309 345 287 223 286 293 296 312 277 200 158 223 240 267 285 298 299 323 5 311 325 314 323 303 341 354 356 357 357 17 89 132
352 347 4 313 335 340 224 308 325 353 315 324 324 359 311 277 281 241 277 312 306 220 157 182 266 244 273 274 272 337 353 346 8 359 18 334 301 353 349 4 4 10 34 56 89
7 355 344 290 296 323 356 346 310 331 258 297 341 322 306 236 229 301 299 235 256 282 331 173 273 321 307 284 283 286 11 359 358 12 337 336 3 9 355 12 4 5 19 37 77
360 326 315 285 321 352 232 340 308 324 297 267 292 304 299 266 308 289 273 263 251 275 291 269 282 318 279 310 317 159 16 1 12 22 353 359 347 354 7 7 360 1 358 45 55